Time,TemperatureF,DewpointF,PressureIn,WindDirection,WindDirectionDegrees,WindSpeedMPH,WindSpeedGustMPH,Humidity,HourlyPrecipIn,Conditions,Clouds,dailyrainin,SoftwareType,DateUTC
2013-02-13 00:21:00,45.0,30.0,30.19,North,0,0.0,-999.0,55,0.00,,,-99.99,,2013-02-13 08:21:00,
2013-02-13 00:31:00,45.0,30.0,30.19,North,0,0.0,-999.0,55,0.00,,,-99.99,,2013-02-13 08:31:00,
2013-02-13 00:43:00,45.0,30.0,30.19,North,0,0.0,-999.0,55,0.00,,,-99.99,,2013-02-13 08:43:00,
2013-02-13 00:52:00,45.0,30.0,30.19,North,0,0.0,-999.0,55,0.00,,,-99.99,,2013-02-13 08:52:00,
2013-02-13 01:21:00,47.0,30.0,30.18,North,0,0.0,-999.0,51,0.00,,,-99.99,,2013-02-13 09:21:00,
2013-02-13 01:31:00,47.0,30.0,30.18,North,0,0.0,-999.0,51,0.00,,,-99.99,,2013-02-13 09:31:00,
2013-02-13 01:41:00,47.0,30.0,30.18,North,0,0.0,-999.0,51,0.00,,,-99.99,,2013-02-13 09:41:00,
2013-02-13 01:51:00,47.0,30.0,30.18,North,0,0.0,-999.0,51,0.00,,,-99.99,,2013-02-13 09:51:00,
2013-02-13 02:21:00,44.0,29.0,30.16,North,0,0.0,-999.0,55,0.00,,,-99.99,,2013-02-13 10:21:00,
2013-02-13 02:32:00,44.0,29.0,30.16,North,0,0.0,-999.0,55,0.00,,,-99.99,,2013-02-13 10:32:00,
2013-02-13 02:41:00,44.0,29.0,30.16,North,0,0.0,-999.0,55,0.00,,,-99.99,,2013-02-13 10:41:00,
2013-02-13 02:51:00,44.0,29.0,30.16,North,0,0.0,-999.0,55,0.00,,,-99.99,,2013-02-13 10:51:00,
2013-02-13 03:22:00,43.0,29.0,30.15,North,0,0.0,-999.0,57,0.00,,,-99.99,,2013-02-13 11:22:00,
2013-02-13 03:32:00,43.0,29.0,30.15,North,0,0.0,-999.0,57,0.00,,,-99.99,,2013-02-13 11:32:00,
2013-02-13 03:42:00,43.0,29.0,30.15,North,0,0.0,-999.0,57,0.00,,,-99.99,,2013-02-13 11:42:00,
2013-02-13 03:52:00,43.0,29.0,30.15,North,0,0.0,-999.0,57,0.00,,,-99.99,,2013-02-13 11:52:00,
2013-02-13 04:21:00,42.0,30.0,30.15,North,0,0.0,-999.0,61,0.00,,,-99.99,,2013-02-13 12:21:00,
2013-02-13 04:32:00,42.0,30.0,30.15,North,0,0.0,-999.0,61,0.00,,,-99.99,,2013-02-13 12:32:00,
2013-02-13 04:42:00,42.0,30.0,30.15,North,0,0.0,-999.0,61,0.00,,,-99.99,,2013-02-13 12:42:00,
2013-02-13 04:52:00,42.0,30.0,30.15,North,0,0.0,-999.0,61,0.00,,,-99.99,,2013-02-13 12:52:00,
2013-02-13 05:21:00,42.0,29.0,30.15,North,0,0.0,-999.0,60,0.00,,,-99.99,,2013-02-13 13:21:00,
2013-02-13 05:31:00,42.0,29.0,30.15,North,0,0.0,-999.0,60,0.00,,,-99.99,,2013-02-13 13:31:00,
2013-02-13 05:41:00,42.0,29.0,30.15,North,0,0.0,-999.0,60,0.00,,,-99.99,,2013-02-13 13:41:00,
2013-02-13 05:51:00,42.0,29.0,30.15,North,0,0.0,-999.0,60,0.00,,,-99.99,,2013-02-13 13:51:00,
2013-02-13 06:21:00,43.0,28.0,30.16,North,0,0.0,-999.0,56,0.00,,,-99.99,,2013-02-13 14:21:00,
2013-02-13 06:31:00,43.0,28.0,30.16,North,0,0.0,-999.0,56,0.00,,,-99.99,,2013-02-13 14:31:00,
2013-02-13 06:41:00,43.0,28.0,30.16,North,0,0.0,-999.0,56,0.00,,,-99.99,,2013-02-13 14:41:00,
2013-02-13 06:52:00,43.0,28.0,30.16,North,0,0.0,-999.0,56,0.00,,,-99.99,,2013-02-13 14:52:00,
2013-02-13 07:21:00,41.0,29.0,30.17,North,0,0.0,-999.0,61,0.00,,,-99.99,,2013-02-13 15:21:00,
2013-02-13 07:32:00,41.0,29.0,30.17,North,0,0.0,-999.0,61,0.00,,,-99.99,,2013-02-13 15:32:00,
2013-02-13 07:42:00,41.0,29.0,30.17,North,0,0.0,-999.0,61,0.00,,,-99.99,,2013-02-13 15:42:00,
2013-02-13 07:51:00,41.0,29.0,30.17,North,0,0.0,-999.0,61,0.00,,,-99.99,,2013-02-13 15:51:00,
2013-02-13 08:21:00,46.0,31.0,30.18,North,0,0.0,-999.0,56,0.00,,,-99.99,,2013-02-13 16:21:00,
2013-02-13 08:31:00,46.0,31.0,30.18,North,0,0.0,-999.0,56,0.00,,,-99.99,,2013-02-13 16:31:00,
2013-02-13 08:41:00,46.0,31.0,30.18,North,0,0.0,-999.0,56,0.00,,,-99.99,,2013-02-13 16:41:00,
2013-02-13 08:51:00,46.0,31.0,30.18,North,0,0.0,-999.0,56,0.00,,,-99.99,,2013-02-13 16:51:00,
2013-02-13 09:21:00,55.0,31.0,30.18,North,0,0.0,-999.0,39,0.00,,,-99.99,,2013-02-13 17:21:00,
2013-02-13 09:31:00,55.0,31.0,30.18,North,0,0.0,-999.0,39,0.00,,,-99.99,,2013-02-13 17:31:00,
2013-02-13 09:41:00,55.0,31.0,30.18,North,0,0.0,-999.0,39,0.00,,,-99.99,,2013-02-13 17:41:00,
2013-02-13 09:52:00,55.0,31.0,30.18,North,0,0.0,-999.0,39,0.00,,,-99.99,,2013-02-13 17:52:00,
2013-02-13 10:22:00,63.0,29.0,30.17,North,0,0.0,-999.0,28,0.00,,,-99.99,,2013-02-13 18:22:00,
2013-02-13 10:32:00,63.0,29.0,30.17,North,0,0.0,-999.0,28,0.00,,,-99.99,,2013-02-13 18:32:00,
2013-02-13 10:41:00,63.0,29.0,30.17,North,0,0.0,-999.0,28,0.00,,,-99.99,,2013-02-13 18:41:00,
2013-02-13 10:51:00,63.0,29.0,30.17,North,0,0.0,-999.0,28,0.00,,,-99.99,,2013-02-13 18:51:00,
2013-02-13 11:21:00,71.0,25.0,30.15,North,0,0.0,-999.0,18,0.00,,,-99.99,,2013-02-13 19:21:00,
2013-02-13 11:31:00,71.0,25.0,30.15,North,0,0.0,-999.0,18,0.00,,,-99.99,,2013-02-13 19:31:00,
2013-02-13 11:41:00,71.0,25.0,30.15,North,0,0.0,-999.0,18,0.00,,,-99.99,,2013-02-13 19:41:00,
2013-02-13 11:51:00,71.0,25.0,30.15,North,0,0.0,-999.0,18,0.00,,,-99.99,,2013-02-13 19:51:00,
2013-02-13 12:21:00,74.0,23.0,30.11,North,0,0.0,-999.0,15,0.00,,,-99.99,,2013-02-13 20:21:00,
2013-02-13 12:31:00,74.0,23.0,30.11,North,0,0.0,-999.0,15,0.00,,,-99.99,,2013-02-13 20:31:00,
2013-02-13 12:41:00,74.0,23.0,30.11,North,0,0.0,-999.0,15,0.00,,,-99.99,,2013-02-13 20:41:00,
2013-02-13 12:52:00,74.0,23.0,30.11,North,0,0.0,-999.0,15,0.00,,,-99.99,,2013-02-13 20:52:00,
2013-02-13 13:21:00,76.0,23.0,30.07,NW,310,1.0,-999.0,14,0.00,,,-99.99,,2013-02-13 21:21:00,
2013-02-13 13:31:00,76.0,23.0,30.07,NW,310,1.0,-999.0,14,0.00,,,-99.99,,2013-02-13 21:31:00,
2013-02-13 13:42:00,76.0,23.0,30.07,NW,310,1.0,-999.0,14,0.00,,,-99.99,,2013-02-13 21:42:00,
2013-02-13 13:52:00,76.0,23.0,30.07,NW,310,1.0,-999.0,14,0.00,,,-99.99,,2013-02-13 21:52:00,
2013-02-13 14:21:00,78.0,23.0,30.04,North,0,0.0,-999.0,13,0.00,,,-99.99,,2013-02-13 22:21:00,
2013-02-13 14:31:00,78.0,23.0,30.04,North,0,0.0,-999.0,13,0.00,,,-99.99,,2013-02-13 22:31:00,
2013-02-13 14:42:00,78.0,23.0,30.04,North,0,0.0,-999.0,13,0.00,,,-99.99,,2013-02-13 22:42:00,
2013-02-13 14:51:00,78.0,23.0,30.04,North,0,0.0,-999.0,13,0.00,,,-99.99,,2013-02-13 22:51:00,
2013-02-13 15:21:00,78.0,23.0,30.02,North,0,0.0,-999.0,13,0.00,,,-99.99,,2013-02-13 23:21:00,
2013-02-13 15:32:00,78.0,23.0,30.02,North,0,0.0,-999.0,13,0.00,,,-99.99,,2013-02-13 23:32:00,
2013-02-13 15:41:00,78.0,23.0,30.02,North,0,0.0,-999.0,13,0.00,,,-99.99,,2013-02-13 23:41:00,
2013-02-13 15:52:00,78.0,23.0,30.02,North,0,0.0,-999.0,13,0.00,,,-99.99,,2013-02-13 23:52:00,
2013-02-13 16:21:00,74.0,28.0,30.02,ESE,110,5.0,-999.0,18,0.00,,,-99.99,,2013-02-14 00:21:00,
2013-02-13 16:32:00,74.0,28.0,30.02,ESE,110,5.0,-999.0,18,0.00,,,-99.99,,2013-02-14 00:32:00,
2013-02-13 16:42:00,74.0,28.0,30.02,ESE,110,5.0,-999.0,18,0.00,,,-99.99,,2013-02-14 00:42:00,
2013-02-13 16:51:00,74.0,28.0,30.02,ESE,110,5.0,-999.0,18,0.00,,,-99.99,,2013-02-14 00:51:00,
2013-02-13 17:21:00,70.0,30.0,30.01,North,0,0.0,-999.0,23,0.00,,,-99.99,,2013-02-14 01:21:00,
2013-02-13 17:31:00,70.0,30.0,30.01,North,0,0.0,-999.0,23,0.00,,,-99.99,,2013-02-14 01:31:00,
2013-02-13 17:41:00,70.0,30.0,30.01,North,0,0.0,-999.0,23,0.00,,,-99.99,,2013-02-14 01:41:00,
2013-02-13 17:51:00,70.0,30.0,30.01,North,0,0.0,-999.0,23,0.00,,,-99.99,,2013-02-14 01:51:00,
2013-02-13 18:21:00,66.0,28.0,30.02,North,0,0.0,-999.0,24,0.00,,,-99.99,,2013-02-14 02:21:00,
2013-02-13 18:31:00,66.0,28.0,30.02,North,0,0.0,-999.0,24,0.00,,,-99.99,,2013-02-14 02:31:00,
2013-02-13 18:41:00,66.0,28.0,30.02,North,0,0.0,-999.0,24,0.00,,,-99.99,,2013-02-14 02:41:00,
2013-02-13 18:51:00,66.0,28.0,30.02,North,0,0.0,-999.0,24,0.00,,,-99.99,,2013-02-14 02:51:00,
2013-02-13 19:21:00,62.0,30.0,30.04,North,0,0.0,-999.0,30,0.00,,,-99.99,,2013-02-14 03:21:00,
2013-02-13 19:31:00,62.0,30.0,30.04,North,0,0.0,-999.0,30,0.00,,,-99.99,,2013-02-14 03:31:00,
2013-02-13 19:42:00,62.0,30.0,30.04,North,0,0.0,-999.0,30,0.00,,,-99.99,,2013-02-14 03:42:00,
2013-02-13 19:51:00,62.0,30.0,30.04,North,0,0.0,-999.0,30,0.00,,,-99.99,,2013-02-14 03:51:00,
2013-02-13 20:21:00,58.0,32.0,30.05,North,0,0.0,-999.0,37,0.00,,,-99.99,,2013-02-14 04:21:00,
2013-02-13 20:31:00,58.0,32.0,30.05,North,0,0.0,-999.0,37,0.00,,,-99.99,,2013-02-14 04:31:00,
2013-02-13 20:41:00,58.0,32.0,30.05,North,0,0.0,-999.0,37,0.00,,,-99.99,,2013-02-14 04:41:00,
2013-02-13 20:51:00,58.0,32.0,30.05,North,0,0.0,-999.0,37,0.00,,,-99.99,,2013-02-14 04:51:00,
2013-02-13 22:21:00,54.0,35.0,30.07,North,0,0.0,-999.0,49,0.00,,,-99.99,,2013-02-14 06:21:00,
2013-02-13 22:31:00,54.0,35.0,30.07,North,0,0.0,-999.0,49,0.00,,,-99.99,,2013-02-14 06:31:00,
2013-02-13 22:41:00,54.0,35.0,30.07,North,0,0.0,-999.0,49,0.00,,,-99.99,,2013-02-14 06:41:00,
2013-02-13 22:51:00,54.0,35.0,30.07,North,0,0.0,-999.0,49,0.00,,,-99.99,,2013-02-14 06:51:00,
2013-02-13 23:21:00,51.0,35.0,30.07,North,0,0.0,-999.0,55,0.00,,,-99.99,,2013-02-14 07:21:00,
2013-02-13 23:31:00,51.0,35.0,30.07,North,0,0.0,-999.0,55,0.00,,,-99.99,,2013-02-14 07:31:00,
2013-02-13 23:41:00,51.0,35.0,30.07,North,0,0.0,-999.0,55,0.00,,,-99.99,,2013-02-14 07:41:00,
2013-02-13 23:51:00,51.0,35.0,30.07,North,0,0.0,-999.0,55,0.00,,,-99.99,,2013-02-14 07:51:00,